ECMWFNIL_925_rhum_000.txt.gz
RH
71 73 76 72 67 66 65 63 58 57 57 56 59 63 62 60 59 61 66 68 65 62 60 59 57 56 59 60 60 61 61 63 64 65 67 68 68 66 66 67 68 69
77 77 76 69 63 63 61 58 56 55 55 56 59 62 63 61 59 60 62 63 62 61 62 62 59 57 59 60 61 62 62 62 63 64 64 64 64 65 64 65 66 67
82 80 73 64 59 58 57 55 55 54 53 56 61 64 64 62 60 59 60 62 62 60 61 63 61 59 60 61 62 63 63 63 63 63 63 62 62 62 62 63 65 66
85 80 70 61 56 54 53 53 53 53 53 56 63 66 64 61 61 60 61 62 59 57 58 61 61 60 60 61 61 62 62 63 64 63 61 61 61 61 61 62 63 65
80 76 67 59 54 52 51 52 53 52 51 54 61 64 62 60 60 60 60 59 56 54 56 59 59 60 60 60 59 61 63 63 63 62 61 60 60 60 60 61 63 63
76 72 65 57 53 51 49 49 51 50 49 52 59 62 62 60 58 57 57 57 55 55 56 57 59 60 60 60 60 61 62 62 61 60 60 60 59 59 60 62 63 64
74 70 63 56 53 51 49 48 49 48 48 51 58 62 62 59 57 57 58 58 58 59 59 59 61 61 59 58 60 61 60 59 57 56 56 57 57 57 58 61 64 66
72 68 62 57 54 52 48 47 46 47 49 53 57 60 59 56 56 58 60 61 62 62 63 64 64 61 59 58 60 61 59 56 53 54 55 55 55 55 57 61 65 68
71 67 63 57 55 53 48 46 46 47 51 53 55 57 56 55 57 59 61 64 65 65 66 66 65 61 59 59 59 58 56 54 54 55 55 55 54 55 57 61 66 69
70 67 64 58 56 55 49 45 48 51 52 53 55 57 56 56 58 61 63 65 67 67 66 65 63 61 59 58 56 54 54 54 55 56 55 54 54 56 58 60 63 65
70 67 64 60 58 57 50 45 49 53 54 54 56 58 59 58 59 61 61 64 66 65 64 62 61 59 57 55 54 54 54 55 56 55 54 54 54 54 54 53 54 56
73 70 69 65 61 59 55 52 52 54 55 56 57 60 62 62 61 60 59 60 62 62 62 61 61 60 58 55 54 54 55 56 56 54 53 53 52 50 49 49 50 51
74 72 70 66 64 62 58 56 56 55 56 57 58 62 64 63 62 61 59 57 59 60 62 63 63 62 58 55 54 55 56 57 55 54 53 52 51 50 50 50 50 50
73 72 71 69 71 68 61 61 63 60 57 57 60 63 64 63 62 61 58 56 58 60 62 63 61 59 56 54 55 56 57 58 56 54 52 50 51 51 51 51 50 51
74 75 76 78 80 76 72 73 73 65 57 58 62 64 63 62 62 61 57 56 59 61 62 61 57 55 54 55 57 58 59 59 58 55 51 50 51 51 50 50 50 50
78 80 84 86 84 80 78 78 76 72 67 66 68 66 63 62 62 60 58 57 59 61 61 59 55 53 54 57 59 60 61 62 61 57 53 50 51 52 51 50 50 50
83 83 85 87 84 79 75 69 67 73 78 76 76 75 71 67 65 63 59 59 61 62 61 58 54 53 54 55 56 59 61 62 62 61 58 53 51 51 52 52 51 50
84 83 83 81 75 71 70 66 65 72 77 75 74 78 80 74 71 64 54 53 62 65 62 59 56 54 54 53 54 56 59 60 61 62 62 60 55 53 54 55 53 51
83 81 81 77 70 67 69 71 70 67 64 62 64 73 80 79 77 68 51 49 62 65 61 59 57 54 53 52 53 55 57 58 59 60 62 64 61 56 56 56 54 53
82 78 78 78 73 68 65 62 58 53 50 55 61 68 74 75 76 75 65 61 65 62 58 58 56 54 52 52 54 55 55 56 58 60 63 66 64 60 56 54 53 55
80 76 79 80 70 59 52 45 42 43 47 53 57 61 66 65 69 77 77 71 66 61 59 59 56 54 52 52 53 53 53 56 59 62 65 65 63 60 56 54 55 60
76 73 75 75 62 49 41 34 34 35 36 42 48 49 49 53 64 76 79 74 69 64 63 61 57 55 54 52 52 54 57 60 61 63 63 61 60 58 56 57 61 66
78 73 71 69 59 47 40 38 39 35 29 33 38 35 38 53 70 79 79 77 74 70 71 69 63 60 60 58 57 62 66 65 61 60 60 59 59 58 56 61 68 71
71 61 59 59 53 47 46 48 46 35 27 29 29 31 46 67 79 81 80 80 76 71 72 71 65 60 60 60 61 63 66 64 61 62 64 62 60 58 59 66 73 73
56 48 50 51 47 44 45 48 49 46 47 51 50 55 69 78 80 79 78 77 77 74 70 66 62 58 58 60 60 60 62 62 63 66 65 60 57 58 64 71 74 72
52 48 50 50 50 49 48 55 65 70 72 74 74 77 80 77 75 76 75 76 80 78 69 60 56 53 53 55 55 57 61 62 62 64 62 58 59 63 68 73 74 71

ECMWFNIL_925_rhum_003.txt.gz
RH
73 72 73 76 76 73 73 75 75 76 75 69 63 61 59 58 59 61 64 65 69 73 67 59 55 58 66 67 62 62 65 67 70 71 71 73 75 76 74 72 73 75
74 73 72 74 73 71 71 73 75 75 75 70 62 58 57 58 58 59 62 64 68 72 67 59 56 55 60 65 61 60 63 62 66 69 66 67 73 75 75 74 75 77
75 73 71 73 72 69 70 72 75 74 72 68 61 58 57 57 58 58 59 62 66 70 66 61 61 58 57 61 60 62 64 63 68 70 66 64 66 67 71 74 75 76
76 72 69 70 68 65 69 73 75 74 70 65 60 58 56 56 59 60 59 61 63 65 63 60 63 62 61 62 61 63 64 63 66 67 64 65 64 63 67 71 72 72
72 68 67 66 63 64 72 75 73 70 66 63 58 56 55 57 61 62 61 61 60 61 62 60 61 62 63 64 62 63 65 64 65 63 63 68 68 65 67 65 63 66
69 65 62 59 57 65 77 78 70 65 62 59 56 54 55 60 65 64 62 61 60 62 62 59 60 62 64 63 60 62 65 65 67 66 65 67 67 66 65 59 56 60
69 65 61 59 60 71 81 77 67 62 59 56 53 53 57 63 66 64 62 62 61 62 61 57 57 58 59 60 60 61 61 62 66 67 65 65 64 63 62 58 56 56
71 70 70 71 74 80 80 71 63 59 56 54 52 53 58 63 64 62 61 61 60 60 60 56 53 53 56 61 62 61 62 64 66 66 64 64 64 62 62 61 58 56
80 82 82 82 82 81 75 66 60 56 54 54 53 54 58 61 62 62 61 59 58 58 59 57 55 57 61 64 63 61 64 68 67 63 60 61 63 63 63 62 62 61
84 81 81 83 82 78 72 65 58 56 54 52 52 55 58 59 61 63 61 58 59 60 61 61 60 62 65 65 63 61 62 63 60 56 55 56 59 61 61 60 61 63
76 65 68 79 81 75 71 65 57 56 54 50 53 58 57 57 61 63 60 59 59 61 63 62 61 63 65 64 62 60 58 56 55 54 54 55 56 55 55 55 55 54
68 60 66 75 79 76 71 65 58 57 55 51 53 57 54 55 61 63 61 60 60 62 64 64 61 61 62 62 61 59 56 55 54 55 55 56 56 54 53 53 52 50
70 68 65 63 71 76 71 65 57 54 56 54 53 56 58 59 62 63 62 62 62 63 66 64 60 59 61 62 61 60 58 56 55 55 56 57 56 55 53 52 51 50
79 75 63 58 70 76 72 66 61 60 63 60 60 61 54 51 60 66 64 65 64 63 64 63 60 60 61 62 64 63 59 56 54 55 56 58 57 56 53 51 50 50
83 79 72 70 74 74 71 70 70 74 69 56 56 59 43 40 60 69 67 69 67 63 63 63 61 61 61 62 62 60 56 54 55 57 58 60 61 60 58 54 51 50
82 81 80 78 74 72 74 73 74 76 63 40 41 54 53 56 66 62 60 70 70 65 64 63 61 61 61 60 58 55 54 55 57 59 60 61 62 63 63 61 58 55
82 82 82 80 78 78 81 80 73 68 58 41 42 59 69 73 70 57 57 69 69 65 65 62 60 61 61 58 55 53 53 55 57 58 59 59 61 62 64 63 61 62
82 83 84 85 86 87 87 81 68 63 61 56 63 75 76 74 75 70 68 71 68 65 66 64 61 62 63 60 56 54 53 54 56 56 56 57 58 60 62 62 62 65
83 86 90 92 91 88 84 75 66 67 74 75 80 87 81 75 80 79 75 75 72 68 68 67 62 61 63 63 60 57 55 55 56 56 56 57 59 62 65 65 66 69
86 91 95 94 90 84 81 79 76 80 86 84 82 86 85 82 82 80 77 78 77 76 75 72 66 63 65 67 65 61 61 63 65 65 65 65 68 72 74 75 75 77
89 92 94 92 87 83 82 84 86 88 89 86 83 83 82 79 79 80 80 79 79 81 76 67 65 69 72 74 72 70 71 72 71 70 68 67 68 71 75 76 74 74
88 87 91 92 88 84 83 84 88 91 92 88 84 80 76 75 79 83 85 84 80 76 67 59 62 72 77 79 77 74 73 69 66 64 63 61 61 63 67 69 67 69
87 85 88 88 85 85 86 86 89 92 91 85 79 77 78 80 82 81 79 76 70 65 60 58 64 73 78 76 71 68 67 64 61 59 57 56 56 58 63 68 70 71
88 86 85 84 85 87 88 87 86 83 81 77 74 77 80 81 80 75 67 61 60 60 58 54 58 69 73 69 64 62 60 57 53 53 53 54 56 59 67 73 73 72
85 85 85 83 82 81 78 76 74 72 74 74 73 77 78 75 74 70 59 54 56 60 57 52 56 66 67 61 58 56 50 44 42 45 51 55 58 64 73 76 73 74
83 83 81 75 68 65 65 68 69 70 73 72 68 70 72 71 69 63 54 51 53 56 56 54 55 61 59 53 50 49 45 41 41 43 51 58 62 69 78 79 76 77

ECMWFNIL_925_rhum_006.txt.gz
RH
80 80 77 74 72 72 73 74 74 74 74 72 69 69 69 68 69 68 67 68 69 69 70 70 67 63 61 63 65 66 66 66 63 63 67 69 68 65 64 63 62 62
81 82 81 76 73 74 75 74 74 73 74 75 72 70 71 71 71 71 69 68 67 67 70 70 67 66 62 61 64 65 66 69 66 64 68 72 71 68 66 64 63 65
81 83 83 78 73 75 76 74 75 74 73 75 75 73 74 73 73 72 70 68 67 67 69 69 67 67 64 62 64 65 64 67 66 62 64 69 70 67 65 64 62 63
84 84 84 78 72 74 75 72 74 75 73 75 77 76 76 74 71 72 70 68 68 67 69 69 67 66 65 63 64 64 62 63 64 62 62 66 68 67 65 63 62 61
85 84 83 79 74 75 76 74 75 75 72 74 78 78 78 76 71 69 69 69 70 69 69 70 67 64 65 66 64 64 62 60 60 61 63 64 64 63 62 62 63 61
85 84 85 84 79 77 78 78 76 74 73 75 79 78 78 77 71 66 67 69 69 68 69 68 66 64 65 66 66 65 64 60 57 59 62 64 63 60 58 59 62 62
85 84 86 85 79 77 81 81 74 70 74 78 78 76 76 76 72 68 70 72 69 67 67 67 67 67 65 65 65 65 65 64 62 61 63 64 63 61 59 58 60 61
85 85 85 82 79 81 84 81 72 67 72 79 78 76 75 73 71 69 70 72 71 71 71 70 71 70 66 63 62 62 65 65 64 64 64 64 62 61 61 60 59 59
86 84 82 80 80 83 81 77 73 69 69 75 76 73 67 64 65 62 61 66 70 73 75 72 72 73 67 62 62 64 67 66 64 64 64 63 61 60 61 59 59 59
85 81 80 79 77 77 75 72 72 71 70 73 74 70 60 54 59 60 60 64 66 66 69 67 68 72 69 64 65 68 69 67 65 65 65 63 61 60 60 59 59 59
81 78 77 75 73 72 71 69 68 70 72 72 70 65 55 49 54 60 62 62 54 51 59 63 65 72 71 66 68 69 70 69 65 65 65 63 62 61 61 61 59 58
77 74 72 72 71 69 69 68 67 69 71 70 66 58 51 52 56 55 53 51 42 39 50 58 62 71 73 70 69 69 69 69 67 66 64 62 63 62 61 60 59 59
73 73 71 71 72 72 71 69 67 68 67 65 63 56 51 54 53 44 38 41 44 47 49 51 59 71 74 73 73 69 68 70 69 67 65 63 62 60 58 57 56 56
73 74 75 77 78 75 73 69 66 69 68 64 60 55 53 53 44 35 35 40 52 61 55 47 58 73 77 78 77 72 70 71 70 68 66 63 61 60 60 59 57 56
74 75 82 87 83 77 74 70 65 66 65 62 62 58 55 49 38 32 36 40 53 67 61 50 54 66 73 75 74 73 75 73 70 68 66 62 60 60 60 61 63 62
77 80 90 92 84 78 74 68 63 58 49 46 58 62 54 45 37 33 35 43 59 74 73 65 60 59 64 67 66 70 75 74 70 68 66 63 60 59 62 64 64 64
79 86 92 89 83 78 72 63 60 60 50 43 54 62 54 44 39 35 40 54 70 79 81 79 69 60 62 65 62 64 65 66 68 68 67 66 62 61 64 62 61 65
81 88 91 87 83 79 72 61 56 60 60 54 55 57 55 49 44 45 58 72 79 79 80 79 68 56 61 66 62 60 60 63 66 68 69 68 63 63 68 66 67 75
81 88 91 87 83 78 73 65 59 60 64 62 58 58 58 58 61 70 82 85 82 77 76 75 68 61 64 68 63 60 63 67 68 68 72 72 65 69 78 79 79 85
81 88 92 90 86 81 77 72 68 66 66 66 65 65 65 69 76 84 88 86 85 82 77 77 76 72 68 68 66 64 67 71 72 69 70 69 65 68 76 80 83 87
83 87 91 92 90 87 84 82 78 75 73 73 74 73 73 77 81 85 85 85 84 85 85 85 84 78 72 70 67 63 63 69 74 73 70 68 68 69 73 78 80 77
86 88 88 89 89 89 87 84 82 80 79 78 77 76 77 79 81 82 82 79 79 83 88 90 85 78 76 74 66 59 62 69 73 73 72 73 78 80 79 77 70 65
86 86 85 85 86 86 84 83 83 83 82 81 80 77 76 77 78 80 80 80 82 85 86 84 80 75 74 74 68 64 65 67 70 76 80 82 82 78 73 69 61 58
85 86 84 82 84 83 81 80 82 82 81 81 79 77 75 74 74 78 82 85 88 88 83 80 78 74 71 71 70 63 56 57 68 78 81 80 78 74 74 73 66 60
83 85 84 82 84 84 81 78 78 78 79 80 79 80 80 79 78 79 80 82 85 85 81 78 77 74 71 68 62 50 43 56 74 79 77 78 80 80 81 80 76 72
79 81 82 82 82 83 83 79 74 73 74 74 73 74 75 77 77 76 74 75 75 74 73 73 70 66 60 52 46 40 41 56 74 79 78 78 79 79 79 79 82 83

ECMWFNIL_925_rhum_009.txt.gz
RH
69 69 70 71 68 66 65 64 64 64 63 62 61 63 65 65 62 56 54 57 57 59 63 66 66 64 60 58 60 61 61 61 58 56 56 59 59 58 58 57 56 56
70 68 70 70 69 68 67 64 64 64 64 65 62 61 65 65 60 59 57 56 57 60 64 66 67 65 60 58 61 61 60 62 61 56 56 59 62 64 63 60 59 60
69 68 70 69 66 66 67 64 65 66 65 66 64 61 64 65 62 61 60 59 60 62 64 65 66 66 61 59 61 61 59 62 62 56 55 58 63 65 63 60 58 57
70 69 69 67 63 63 65 64 65 68 65 62 62 61 64 66 65 64 63 63 64 63 64 64 64 65 64 61 62 61 60 61 61 57 56 57 59 63 63 62 61 57
72 71 69 67 63 61 64 64 64 66 63 60 61 62 66 69 66 64 65 67 66 64 63 65 64 64 65 63 62 62 61 60 59 58 59 58 57 58 59 58 59 59
73 73 71 69 65 63 64 64 63 62 60 59 61 64 68 72 68 65 66 68 65 62 62 64 65 63 64 65 64 63 62 59 57 57 58 58 58 56 53 53 54 57
72 73 73 71 68 66 65 65 64 62 59 57 61 66 68 71 71 66 66 67 64 62 63 65 66 64 63 65 66 64 65 63 59 58 57 58 59 58 56 55 55 57
72 74 75 74 71 68 66 66 67 66 62 58 61 66 68 71 73 68 65 66 64 63 65 66 68 67 64 65 66 66 67 66 63 62 61 60 60 60 61 60 59 59
73 74 76 74 72 69 65 62 65 69 66 63 62 64 68 72 72 67 63 66 66 64 68 69 68 70 68 65 66 67 66 65 63 63 63 63 63 62 62 61 60 60
72 72 73 72 70 67 62 58 63 69 71 70 63 61 68 72 71 66 62 67 71 67 67 70 70 74 73 67 66 66 64 63 63 63 63 62 63 62 62 61 59 59
71 69 70 70 65 61 58 57 61 67 71 70 63 62 70 69 65 64 62 68 73 67 69 75 77 79 76 69 66 65 63 64 65 66 64 62 63 63 63 61 58 57
71 68 68 67 61 59 58 54 57 65 65 60 60 66 69 64 61 62 65 72 71 66 75 81 78 77 74 70 68 63 63 66 66 66 65 63 63 63 64 62 59 59
70 67 67 64 60 62 60 52 55 62 57 52 60 67 64 59 60 61 68 75 64 57 70 78 76 75 72 70 69 64 65 68 66 65 64 63 63 63 62 61 58 57
67 68 67 63 60 63 61 56 60 63 57 54 60 61 55 55 59 60 67 69 53 45 60 73 76 75 69 69 71 68 67 68 67 66 65 64 65 63 63 61 57 56
67 69 69 66 65 65 61 61 65 64 57 52 48 46 48 54 58 58 61 61 51 51 65 72 72 69 66 67 71 70 70 69 68 68 66 66 67 64 63 62 59 59
68 71 72 72 72 68 61 62 66 61 53 46 43 46 53 58 61 62 61 58 55 60 68 70 67 66 65 67 69 73 74 71 68 69 69 69 69 68 65 61 59 61
74 79 79 78 76 70 65 65 66 59 51 48 51 57 63 64 65 66 64 61 59 63 68 70 67 64 65 68 70 73 76 74 71 70 70 71 71 68 65 62 62 64
81 85 83 80 75 70 68 66 64 59 55 59 66 70 73 73 73 71 65 60 61 65 68 69 66 63 66 68 64 63 69 75 75 71 69 72 73 70 66 65 65 66
85 84 82 80 75 71 70 67 66 63 62 67 74 77 79 79 77 74 67 61 62 66 64 62 62 65 70 64 52 49 58 69 73 73 72 73 74 71 69 68 68 69
88 84 83 82 80 77 75 74 73 72 71 73 75 77 80 80 77 75 72 68 68 68 64 60 60 65 70 64 50 47 58 67 72 77 75 72 72 75 77 75 73 75
90 86 83 83 83 82 80 79 78 77 77 75 72 72 76 78 76 73 72 71 71 70 68 64 61 61 66 66 55 52 62 69 72 75 72 68 70 75 77 76 75 77
90 87 83 82 83 82 81 80 79 78 78 76 73 70 71 74 73 71 71 71 72 72 70 66 62 61 65 66 63 65 72 73 72 72 70 71 74 73 72 75 78 80
87 88 84 83 81 80 79 79 79 78 77 75 74 70 67 67 68 68 69 71 72 72 70 67 66 68 70 68 66 70 74 74 74 75 75 77 80 78 78 81 83 83
85 87 85 84 82 79 79 78 76 76 76 75 74 71 66 63 63 63 65 66 67 67 68 69 70 76 80 73 63 62 69 74 77 76 75 76 76 81 85 81 79 84
83 85 84 84 82 80 79 79 78 77 77 77 75 72 69 68 66 66 66 67 67 67 69 73 74 79 84 76 63 63 71 77 78 74 72 71 71 81 88 80 77 85
77 80 80 79 81 80 78 78 77 76 77 78 77 75 74 74 71 70 69 71 74 74 75 79 77 76 81 77 65 65 71 76 79 77 70 65 67 76 83 80 81 86

ECMWFNIL_925_rhum_015.txt.gz
RH
80 79 77 75 72 68 66 64 64 67 68 70 73 74 77 78 77 80 77 69 72 70 58 55 55 52 55 56 53 56 60 58 56 55 56 55 53 56 57 54 55 55
81 80 78 76 73 69 66 63 63 67 68 69 71 73 76 77 76 79 75 68 69 66 57 58 59 53 54 57 54 58 61 58 59 58 56 58 57 54 55 55 55 56
81 80 78 76 74 71 68 65 64 67 68 69 70 72 75 75 75 77 73 68 66 63 58 60 59 54 56 58 56 59 61 59 61 61 57 58 58 55 56 58 58 57
82 80 78 76 74 72 70 68 67 67 69 72 71 70 72 72 73 75 71 67 65 62 60 60 58 55 57 63 60 57 60 60 59 61 60 57 56 58 60 60 61 60
82 81 78 76 75 72 70 69 68 69 70 73 72 71 69 68 70 72 70 67 64 61 59 60 59 55 56 63 63 58 59 61 60 60 60 59 58 59 59 59 62 63
81 80 78 77 77 73 70 69 68 69 70 72 73 72 70 68 68 68 68 68 64 60 58 60 61 58 56 61 63 60 58 59 60 58 58 60 59 58 59 61 62 61
81 79 78 78 77 74 71 70 69 68 69 71 71 72 72 69 67 65 67 67 63 59 59 60 61 60 59 60 61 61 60 59 60 58 57 61 61 59 60 62 61 58
79 78 78 78 77 75 72 70 70 69 69 70 69 70 70 69 67 65 65 64 61 60 60 61 62 61 62 62 61 62 62 61 61 60 59 60 61 60 60 61 61 60
79 78 78 78 76 75 73 71 71 70 70 69 68 68 68 68 67 65 64 62 60 60 61 61 62 63 63 63 61 61 63 62 61 60 60 61 61 60 59 58 59 60
79 79 78 77 75 74 73 71 71 71 70 69 68 68 68 68 67 66 65 64 62 61 62 63 63 63 65 65 62 59 60 62 62 61 61 62 61 59 57 56 57 58
78 79 78 76 74 73 73 72 71 70 70 68 68 68 69 69 69 68 67 66 64 63 63 64 65 65 65 65 64 61 58 58 61 62 63 64 64 61 58 58 59 59
77 78 78 76 74 72 71 71 70 69 70 69 68 68 68 69 69 69 68 67 66 65 65 65 66 66 65 65 65 65 62 59 58 59 61 63 64 65 63 62 62 62
76 76 76 75 73 71 70 70 69 67 68 69 68 68 68 68 68 69 69 69 68 67 67 67 67 67 66 65 65 66 66 64 61 59 59 60 61 62 61 60 59 60
74 74 74 73 72 70 69 68 67 65 65 67 68 68 67 66 67 69 70 71 71 70 70 69 69 69 68 66 66 67 68 68 66 63 62 63 64 63 62 62 62 63
71 72 73 72 71 70 69 67 65 63 63 64 66 67 66 66 66 68 71 74 74 73 73 72 70 69 69 68 66 67 68 69 69 69 68 69 70 68 67 68 67 66
69 70 72 72 71 70 69 67 64 62 61 62 64 65 65 65 66 68 71 74 76 76 75 74 72 70 70 69 67 66 67 69 71 72 72 72 70 68 68 69 67 66
67 69 70 71 72 71 70 68 66 63 62 62 63 65 65 64 64 67 70 73 76 77 77 76 74 72 71 70 68 67 67 69 72 72 72 70 67 67 68 69 68 66
67 68 69 70 71 72 71 70 67 66 64 64 64 66 66 64 63 65 69 72 76 77 77 76 75 73 72 71 70 68 67 69 71 71 68 65 65 69 70 70 69 67
68 68 69 70 70 71 71 71 70 69 66 65 65 66 67 67 65 65 67 71 75 77 78 76 75 74 74 73 72 70 68 69 68 66 62 61 66 71 71 70 69 68
69 70 72 72 71 71 72 72 72 71 69 66 64 65 68 69 67 66 67 71 75 77 78 77 75 74 74 74 75 73 71 69 65 61 63 67 69 71 72 72 70 68
69 71 73 74 73 73 73 74 73 72 70 67 63 63 66 68 68 69 71 75 76 76 78 79 78 77 76 76 76 75 73 70 62 59 66 72 73 72 73 72 70 70
68 71 74 75 75 75 75 74 74 72 69 66 64 65 68 69 70 71 74 77 78 79 81 81 80 80 79 79 79 77 75 71 62 59 68 76 76 75 73 72 72 73
66 70 74 75 75 76 76 75 74 72 69 67 69 72 74 74 74 74 75 77 78 79 80 78 76 76 75 75 75 74 73 70 61 59 71 81 79 76 75 75 74 74
64 69 73 76 77 77 77 76 75 72 71 71 73 76 78 77 77 76 75 75 74 73 73 71 68 68 67 67 67 66 65 63 55 55 69 81 80 78 79 77 74 72
65 70 74 76 78 78 78 77 75 74 74 74 74 75 77 77 77 77 76 75 72 69 67 66 65 65 66 66 65 63 60 55 51 55 68 78 81 82 82 81 76 72
69 73 76 77 79 80 79 78 77 77 77 76 74 73 74 76 76 76 76 74 72 69 67 66 67 67 67 66 64 63 61 57 55 59 67 75 82 84 83 81 78 74

ECMWFNIL_925_rhum_021.txt.gz
RH
72 73 74 75 75 76 79 81 80 80 82 82 82 81 80 80 80 80 81 84 87 87 84 80 76 68 58 55 62 67 65 62 64 67 67 67 66 63 59 56 54 54
73 74 75 77 78 79 79 80 79 80 82 82 80 78 77 78 79 79 80 84 86 85 82 77 71 64 60 60 64 65 61 62 66 65 62 61 63 60 55 54 54 53
75 75 76 77 79 79 80 80 79 80 81 83 82 79 78 77 77 79 81 83 83 83 81 76 68 63 64 66 65 62 60 63 65 63 58 58 58 54 50 53 55 54
76 77 77 77 78 79 80 80 80 81 82 84 84 82 79 76 77 79 82 83 82 81 81 77 70 65 66 69 66 61 60 62 63 61 60 59 58 55 53 54 56 55
77 77 77 77 78 79 80 80 80 81 82 84 84 83 81 78 77 79 80 82 83 82 81 79 73 67 68 73 69 62 59 61 63 62 61 60 59 60 58 55 56 58
78 78 78 78 78 80 81 79 78 79 81 83 84 84 83 79 77 77 76 79 83 83 82 81 77 71 71 75 72 62 58 59 62 64 62 59 60 62 62 57 55 58
78 79 79 79 80 81 81 80 78 78 79 81 83 84 83 81 79 76 74 76 81 83 82 81 79 75 74 75 70 61 57 58 61 64 63 60 61 62 59 57 54 56
77 78 80 80 82 82 82 81 80 80 79 81 83 84 84 82 79 77 75 76 79 81 82 81 80 78 76 74 70 62 59 59 61 63 62 61 62 60 55 54 55 55
77 78 80 81 83 84 83 83 82 81 80 81 83 83 84 83 80 77 77 77 78 80 80 79 79 79 78 75 72 67 61 58 60 60 59 60 61 59 55 55 57 57
78 79 80 81 84 84 84 84 83 82 82 81 82 83 84 84 81 79 79 79 80 79 79 79 79 79 78 75 74 71 64 59 58 59 58 59 60 59 57 57 58 58
80 80 80 81 83 84 84 84 84 83 82 82 82 82 83 84 83 82 81 81 81 79 79 79 78 79 77 74 73 72 66 60 58 59 59 59 59 60 59 59 59 60
80 81 81 81 82 83 84 84 84 84 83 83 83 82 83 83 83 83 83 82 81 80 80 79 79 78 75 72 72 70 66 62 60 60 60 60 60 61 61 61 60 60
80 81 81 81 81 82 84 84 85 85 84 83 83 82 83 83 83 84 83 83 82 81 81 80 80 78 75 72 72 70 67 65 63 62 61 61 61 62 63 63 61 61
78 79 80 80 81 82 84 85 86 85 84 84 84 84 83 82 83 84 84 84 84 83 83 82 81 80 77 74 73 71 70 67 66 65 63 62 62 62 62 62 62 62
78 79 80 80 82 83 84 86 86 86 85 84 84 84 84 83 83 84 85 86 86 86 85 84 83 81 79 77 74 72 71 69 68 66 62 61 61 61 61 60 60 60
77 79 80 81 82 83 85 86 86 87 86 85 84 84 84 84 84 84 85 86 86 86 86 85 84 82 80 79 75 73 72 71 70 67 63 61 60 60 60 58 56 56
77 79 80 81 82 84 85 87 87 87 87 86 85 85 84 84 84 85 86 85 85 85 85 84 84 83 82 80 77 75 73 72 71 68 65 63 62 62 59 54 54 58
77 80 81 81 83 84 85 87 88 88 88 87 86 85 85 84 84 85 85 84 85 85 84 83 83 83 82 80 78 77 75 73 71 68 67 65 63 62 59 56 59 62
77 80 81 82 83 83 85 87 88 88 88 87 87 86 85 85 84 84 84 84 85 85 84 83 83 83 82 80 79 77 76 74 71 69 68 65 64 62 61 63 65 61
78 80 81 82 83 84 86 87 87 88 87 87 87 86 85 85 85 84 84 83 84 83 84 84 84 83 81 79 79 77 75 74 72 70 69 66 64 63 63 68 69 62
78 80 81 82 83 84 86 86 87 87 87 86 87 85 85 85 85 84 83 83 83 83 83 84 84 83 82 80 79 77 75 74 73 72 71 69 67 66 67 71 71 67
77 79 80 82 84 85 86 86 87 87 86 86 86 85 85 85 84 83 83 83 84 83 84 84 84 83 83 81 80 78 76 75 75 74 74 72 70 70 73 76 75 71
75 78 80 81 83 85 86 86 86 86 86 85 85 85 85 84 84 83 83 83 83 83 83 84 84 84 83 82 81 80 78 78 77 77 77 75 74 76 80 81 80 76
73 76 78 81 83 84 85 85 85 86 86 85 84 84 83 83 83 83 83 82 82 82 82 82 83 84 83 82 82 80 80 79 79 79 80 78 80 83 84 82 80 78
72 74 76 79 81 82 83 84 84 85 85 84 84 83 82 82 82 82 83 83 82 81 80 81 82 83 83 82 82 81 81 80 80 82 83 82 83 85 84 82 80 81
69 72 75 77 79 80 81 82 82 84 84 84 84 83 82 82 81 81 82 82 81 81 81 81 82 82 82 82 81 81 81 81 83 84 84 84 85 85 83 84 84 83

ECMWFNIL_925_rhum_024.txt.gz
RH
77 76 76 76 76 75 75 75 75 77 77 77 76 76 75 76 76 77 80 81 80 80 79 81 82 81 82 86 89 89 82 68 57 57 61 64 66 68 69 66 62 59
77 76 76 77 77 76 75 74 73 74 74 75 73 72 74 75 75 76 79 82 82 82 82 83 83 83 84 86 86 85 76 64 56 56 61 64 65 68 69 69 67 62
77 76 76 77 76 76 75 74 74 73 72 73 72 72 73 74 76 77 79 82 84 84 83 83 84 83 85 84 82 79 70 60 55 56 62 64 64 68 69 68 69 65
77 77 75 76 75 75 75 76 76 75 74 74 72 71 73 74 77 80 82 83 85 85 84 83 83 83 85 84 80 75 66 58 55 57 62 63 64 68 67 64 66 63
77 77 75 75 76 76 77 76 76 76 76 75 73 73 75 75 77 81 83 84 85 85 85 83 82 82 84 83 79 72 64 59 58 59 62 62 64 68 64 60 62 58
77 77 76 76 76 76 78 77 76 76 77 77 77 76 76 76 77 79 81 83 84 84 85 84 83 82 82 82 78 70 64 61 61 60 62 63 65 67 63 60 60 56
77 78 77 77 77 77 78 78 77 78 78 79 80 79 78 79 79 78 78 80 82 82 84 84 82 81 81 82 78 70 65 66 65 62 62 64 66 68 64 62 61 59
77 77 77 77 78 78 79 79 79 80 80 82 83 81 80 81 80 78 78 80 81 82 83 82 81 80 80 80 78 72 68 68 70 68 67 65 66 67 66 64 62 60
77 77 78 78 79 79 80 80 81 82 83 83 84 83 82 82 81 79 78 79 81 83 83 81 79 79 80 79 77 74 71 70 72 72 72 69 66 65 65 65 63 61
77 78 79 79 80 80 80 81 81 82 84 84 85 85 84 84 83 82 80 80 82 84 84 82 78 78 80 78 76 75 73 72 72 72 74 72 65 61 63 65 64 62
77 78 79 80 81 80 81 81 81 83 84 85 86 86 85 86 86 86 84 83 82 83 84 83 78 77 78 78 77 77 77 75 73 72 73 71 65 61 63 65 63 61
76 77 79 80 81 81 81 81 82 83 84 84 86 86 86 87 86 87 86 84 82 82 83 82 79 78 77 76 77 78 79 79 76 73 73 71 67 63 63 64 62 60
75 76 77 78 80 80 81 81 82 84 84 85 86 86 87 87 87 87 85 83 83 82 82 82 81 80 78 77 78 78 80 81 78 76 74 73 70 66 64 63 62 60
74 76 76 77 78 80 81 82 83 84 85 85 86 87 87 87 87 86 85 84 84 83 83 83 83 82 80 79 79 79 79 80 80 78 76 74 72 69 66 63 63 62
74 76 77 77 78 80 81 82 84 85 86 86 87 87 87 87 87 86 86 87 87 86 86 86 85 83 79 78 78 78 79 80 80 78 75 74 73 71 68 66 65 64
74 76 78 79 79 80 81 83 84 86 87 87 87 88 87 87 87 87 87 88 89 90 90 89 87 83 79 76 75 75 77 79 79 77 75 73 72 71 70 67 65 66
74 76 78 80 80 81 82 83 85 86 87 88 88 89 88 88 88 88 88 89 90 91 92 90 87 83 80 78 76 75 77 78 77 76 74 73 73 72 70 68 67 67
74 77 79 80 81 82 83 84 86 87 87 88 89 89 89 89 88 88 88 90 91 91 91 90 87 84 82 81 79 79 78 77 76 75 74 74 74 72 71 70 68 69
74 77 79 80 81 82 83 85 87 88 88 89 89 89 90 90 89 88 89 90 91 91 90 89 87 85 84 83 82 81 80 79 78 76 75 75 74 73 72 70 71 77
74 77 78 80 81 82 84 86 87 88 88 88 89 89 91 91 90 90 90 91 91 91 90 89 87 86 86 86 85 82 80 80 80 78 77 76 75 74 72 72 75 80
74 77 78 80 81 82 85 86 88 89 89 89 90 90 91 91 91 91 91 91 91 91 91 90 88 88 87 87 86 84 82 82 82 81 80 78 77 75 74 75 77 77
74 77 78 80 82 83 85 87 88 89 89 89 90 90 91 90 90 91 91 91 92 91 91 91 89 89 88 87 86 84 83 84 84 83 82 81 79 78 77 77 77 77
74 77 78 80 81 83 85 86 87 88 89 90 90 91 92 91 91 91 91 91 92 91 91 91 90 90 88 87 86 85 85 86 85 84 84 82 80 80 80 80 79 78
74 76 78 79 81 83 84 84 86 87 88 89 90 90 91 91 90 91 91 91 91 90 90 90 90 91 89 87 87 86 85 85 85 85 85 84 83 83 83 81 79 78
73 75 76 78 80 82 83 84 85 86 87 88 89 89 90 90 90 91 91 91 91 90 90 90 90 91 90 89 89 87 85 85 84 86 87 85 85 85 85 84 82 81
72 75 76 78 80 81 82 83 84 85 86 87 88 89 89 89 90 91 91 91 91 90 89 90 90 91 90 89 88 87 85 84 85 86 86 85 86 87 87 87 86 84

ECMWFNIL_925_rhum_027.txt.gz
RH
88 87 85 85 84 82 81 77 76 78 78 79 80 75 71 72 73 74 77 82 87 89 93 97 97 94 87 79 82 85 83 84 84 88 85 67 60 66 67 66 68 70
87 87 85 85 85 81 78 75 74 75 74 73 74 73 69 70 72 73 74 76 80 83 88 94 97 96 89 80 84 89 87 85 86 88 85 69 60 63 65 65 66 68
86 87 85 85 84 80 78 79 76 74 74 72 72 72 70 72 73 73 74 74 76 78 81 88 94 97 96 87 83 86 86 84 86 87 81 68 59 59 61 63 66 67
86 87 86 84 83 81 80 82 79 76 76 76 73 72 72 73 74 78 78 76 78 77 74 82 92 96 99 95 85 83 84 84 85 85 79 67 56 55 57 59 65 68
83 84 84 84 84 83 82 81 79 78 78 78 75 73 73 72 74 81 82 81 85 82 74 81 92 96 99 99 90 85 85 87 87 84 79 69 56 54 56 55 61 69
82 81 82 83 83 83 82 79 78 78 79 80 77 74 74 72 73 78 79 82 89 89 81 83 93 97 99 98 94 88 85 87 87 81 76 69 59 56 55 53 59 68
82 82 81 82 82 82 81 79 79 78 78 79 78 75 75 74 74 75 75 79 86 88 84 81 88 96 97 98 96 88 83 86 85 79 75 68 61 59 54 51 58 67
80 81 81 81 82 83 82 81 81 79 77 78 79 77 75 74 74 73 73 76 80 84 83 79 85 94 98 98 92 81 80 85 84 80 76 68 63 62 56 50 56 65
79 80 81 81 81 81 81 81 81 81 78 77 79 80 77 75 74 73 73 73 75 82 85 82 84 93 99 96 82 73 78 82 82 81 77 69 65 64 57 49 53 64
79 80 79 79 79 78 78 77 78 80 80 78 80 82 81 77 74 74 74 71 73 81 86 86 86 93 100 90 73 70 76 77 79 81 76 69 66 64 58 50 51 62
78 78 77 76 76 75 75 75 74 77 81 81 81 83 84 81 77 76 76 74 75 77 81 85 89 96 98 83 67 70 75 74 78 80 76 71 67 64 60 53 51 58
76 75 74 75 75 74 73 74 73 75 78 81 82 83 86 85 80 78 78 76 75 74 77 81 88 97 93 74 65 71 74 74 79 80 77 74 70 66 64 60 55 57
73 74 75 74 75 76 75 74 74 74 76 80 81 82 85 86 83 80 78 77 76 77 78 80 86 94 88 72 69 73 72 75 81 82 80 77 73 69 67 65 62 59
71 74 77 77 77 79 78 77 77 76 77 80 82 83 84 85 83 81 80 80 80 79 80 82 88 90 83 76 75 73 72 76 79 81 82 80 76 74 71 70 68 64
72 75 79 79 80 81 81 81 80 80 81 82 84 84 84 85 83 81 82 85 85 83 83 87 92 90 83 79 78 73 73 77 79 80 83 82 79 78 76 74 71 68
70 73 78 79 79 81 83 82 83 83 83 83 84 84 85 86 85 84 85 88 89 87 88 90 92 91 86 79 74 71 72 76 80 82 82 82 81 80 78 76 72 68
67 71 76 77 78 81 83 83 85 86 84 84 85 86 88 87 86 87 87 88 89 89 91 90 87 90 89 79 73 72 73 76 80 81 82 83 82 81 79 76 71 68
67 72 76 78 79 82 84 85 86 87 86 87 87 88 90 89 89 89 88 88 88 88 89 88 85 89 89 80 74 75 77 80 81 80 82 83 82 81 79 75 72 70
69 73 76 80 81 82 84 85 87 88 88 88 89 89 90 89 89 90 89 88 88 85 85 85 84 88 89 81 76 78 79 83 85 83 82 82 82 81 80 77 74 72
70 74 77 81 82 83 85 85 86 88 87 87 88 88 90 89 88 89 88 88 87 85 85 85 83 86 88 82 78 80 82 84 87 86 82 81 80 79 78 76 74 72
72 76 79 82 83 84 86 86 86 87 88 87 86 85 87 88 87 87 87 87 87 86 86 85 84 87 88 82 79 82 84 86 89 88 85 83 81 78 77 76 74 71
74 78 80 82 84 85 85 85 87 88 89 88 85 83 83 84 85 85 85 86 87 86 85 84 84 87 86 83 82 84 87 89 90 90 88 86 83 80 79 77 75 73
74 77 79 81 83 84 85 85 86 88 89 88 86 82 80 81 82 82 82 83 85 85 84 82 82 85 86 85 85 86 89 91 91 90 91 89 86 83 82 80 78 75
70 74 78 80 82 83 83 84 85 87 87 88 86 82 79 79 80 80 80 81 82 83 84 83 82 84 87 86 85 87 90 91 91 91 92 91 89 87 85 83 80 77
66 74 78 80 82 82 82 83 84 85 86 87 86 83 80 78 77 78 79 80 81 81 83 85 83 83 86 87 86 87 91 92 92 92 91 90 90 90 89 87 83 80
68 75 78 79 81 81 81 82 83 84 85 86 84 82 80 77 76 76 76 78 81 81 82 85 85 83 85 88 88 88 90 92 92 92 91 89 90 91 92 90 87 84

ECMWFNIL_925_rhum_030.txt.gz
RH
83 84 84 83 80 75 73 74 73 73 72 70 69 71 71 73 74 75 77 82 86 85 82 84 86 85 85 84 83 83 82 83 80 80 79 75 75 71 64 64 65 63
83 85 85 82 82 79 76 75 74 74 74 72 69 69 73 76 78 79 79 82 85 84 82 84 85 85 85 84 84 83 84 85 81 76 75 75 76 72 64 63 66 67
81 83 82 79 80 81 77 75 77 76 74 74 72 71 73 76 80 82 82 81 82 82 83 85 84 85 86 85 86 86 85 86 81 74 72 75 77 73 64 62 64 67
82 81 80 78 79 80 77 75 78 78 74 73 74 73 72 75 80 84 85 83 82 81 83 85 84 83 86 86 87 85 82 82 80 76 74 75 78 76 67 61 61 65
82 80 79 79 79 79 79 77 76 77 75 73 74 75 75 77 80 82 84 85 84 82 82 84 83 81 83 86 86 83 79 77 79 82 80 76 77 78 69 63 62 64
81 80 79 79 80 79 78 78 76 75 75 72 73 75 76 79 81 79 81 83 82 80 79 80 81 79 80 84 85 83 80 76 74 80 81 76 77 77 69 66 68 66
79 80 80 80 81 81 79 78 76 75 74 73 73 75 76 79 81 79 79 81 79 78 78 79 80 80 80 82 84 83 82 79 74 75 78 77 78 78 70 68 71 69
77 78 80 80 80 79 77 77 77 75 75 74 73 74 76 77 80 80 79 79 79 78 79 81 81 81 80 81 83 81 80 81 78 76 78 78 77 79 75 71 73 70
74 75 78 78 77 75 73 73 74 75 76 75 72 72 75 77 77 79 80 80 81 80 81 83 83 82 80 80 81 82 82 83 81 78 79 79 78 81 79 74 73 71
72 72 72 73 72 70 69 69 69 71 74 75 72 69 72 76 77 78 80 83 83 82 84 87 86 83 80 79 79 82 85 85 83 82 82 82 82 81 79 75 74 71
70 69 67 68 68 65 65 65 64 65 69 73 72 68 69 75 78 79 81 84 85 84 85 87 87 84 80 78 77 81 87 87 86 87 86 87 85 80 77 75 74 70
66 65 64 64 64 62 61 61 60 59 63 68 70 69 68 71 77 80 81 83 85 85 85 87 87 83 80 79 77 79 87 88 87 88 87 86 84 80 77 76 73 70
62 63 63 62 62 62 60 59 59 57 58 62 66 68 68 68 74 80 81 83 85 85 85 87 87 84 80 81 78 79 86 88 85 85 84 84 83 80 76 74 72 71
60 63 65 63 62 64 63 60 60 59 57 60 63 67 68 66 70 78 81 82 84 85 85 85 86 84 80 80 79 78 83 87 85 83 82 83 83 80 76 72 70 69
60 62 66 66 65 66 67 65 63 63 61 61 64 67 69 67 68 74 79 81 81 83 84 84 85 84 79 77 77 78 81 84 84 83 80 81 82 80 78 74 70 68
62 64 67 69 68 68 71 69 67 67 65 64 66 69 70 70 69 72 76 78 80 81 82 83 83 82 79 77 77 80 81 82 83 84 81 80 81 81 79 77 73 70
65 67 69 72 72 71 73 73 71 70 70 69 69 71 74 73 72 73 73 74 77 78 79 81 81 80 79 78 77 79 82 81 81 84 83 81 81 81 79 78 76 73
67 70 72 74 75 74 75 76 74 73 73 73 72 74 77 76 75 76 75 73 74 75 76 77 79 78 77 76 77 79 80 81 80 82 83 81 80 81 80 78 77 76
70 72 73 75 76 77 77 78 77 76 76 76 75 76 77 78 77 78 77 75 74 74 74 74 75 77 76 75 77 79 79 81 82 81 80 80 79 80 80 79 78 77
71 71 73 75 77 78 78 79 79 78 77 76 76 77 77 77 76 75 76 77 74 73 74 74 73 75 76 74 75 77 80 84 85 82 79 79 80 80 80 80 79 79
71 71 72 74 77 78 79 79 79 79 78 77 75 75 76 75 74 72 73 74 72 70 72 72 72 74 76 74 74 76 80 85 86 84 81 79 80 81 80 80 80 81
70 70 71 71 74 77 77 77 78 79 79 78 75 73 73 75 74 72 70 70 70 70 70 69 69 73 73 71 73 77 79 84 88 87 83 81 81 81 81 81 81 82
67 67 68 70 73 76 76 75 77 78 79 79 77 73 71 72 73 71 68 67 69 70 70 68 68 71 71 69 72 77 80 84 90 87 82 81 80 77 77 79 79 82
65 66 68 70 72 74 75 74 75 76 77 78 77 73 69 68 69 68 67 67 67 67 68 69 68 69 71 72 73 76 80 86 90 86 81 81 79 75 75 77 77 81
64 66 68 70 71 73 73 73 74 73 74 76 75 72 69 67 65 64 65 65 65 64 65 69 69 66 69 73 75 77 80 86 88 84 80 79 77 75 75 76 76 78
64 66 69 69 71 72 72 72 72 71 71 73 73 70 69 67 64 62 63 63 62 62 64 67 68 67 66 70 75 77 80 86 87 82 79 79 76 74 75 75 75 75

ECMWFNIL_925_rhum_033.txt.gz
RH
74 72 70 67 66 63 61 65 69 70 67 62 60 63 63 62 61 59 60 65 72 75 74 74 78 81 80 79 80 79 76 76 75 73 74 70 65 66 65 60 57 55
75 73 72 68 67 67 63 63 65 67 68 64 58 58 62 64 64 63 62 65 71 75 75 74 76 81 81 77 79 80 77 78 77 72 71 68 65 66 66 60 58 59
75 74 73 69 67 67 65 63 65 67 67 67 62 58 59 63 65 66 65 66 70 74 75 74 74 79 80 75 77 79 77 78 79 73 69 67 65 66 66 60 56 60
76 73 72 70 65 66 67 64 65 67 65 65 65 60 57 60 64 68 69 69 70 72 73 74 73 76 79 78 77 77 74 77 79 75 68 66 66 67 66 61 56 59
75 73 72 71 68 67 69 66 63 66 66 63 64 63 60 60 63 68 72 73 73 72 70 72 74 74 77 80 80 77 73 74 77 76 70 67 68 69 67 63 57 58
73 74 72 71 72 70 69 68 65 65 65 63 62 63 63 63 65 67 71 74 75 72 68 69 73 73 75 81 83 79 75 71 71 75 73 68 68 69 68 66 61 59
71 74 73 71 73 72 68 69 69 66 65 63 61 62 64 66 68 68 69 73 74 72 67 66 71 73 73 77 81 80 78 73 68 72 75 71 68 68 68 68 65 61
67 70 72 70 70 70 69 70 71 68 66 65 62 63 65 67 68 70 70 71 73 73 69 66 70 74 72 72 76 78 78 76 71 71 76 74 69 69 70 69 67 64
66 67 70 70 68 66 66 67 67 68 69 67 63 62 65 67 67 69 72 72 72 72 72 69 71 75 73 70 73 76 76 75 73 72 72 71 69 70 72 70 69 69
65 65 65 66 64 61 60 59 59 64 69 68 64 59 61 66 68 69 72 75 73 72 73 72 72 76 76 72 72 75 76 74 74 73 71 70 69 71 74 72 70 71
63 62 61 61 59 57 55 54 55 60 64 67 65 57 55 62 68 70 72 76 76 73 73 74 75 77 78 74 71 73 75 75 74 74 73 73 73 72 74 74 72 73
60 58 57 57 56 53 51 52 53 55 57 61 63 58 54 56 64 70 72 75 78 75 74 76 77 78 79 76 71 70 73 73 73 76 76 76 76 74 74 76 75 74
57 57 56 55 55 53 50 50 51 49 49 53 58 60 57 54 59 69 72 74 79 77 75 77 79 79 80 79 72 69 71 72 72 75 77 77 77 76 74 75 76 74
55 58 58 55 55 55 52 49 50 48 46 49 55 60 59 55 56 66 72 74 77 78 76 77 80 80 81 81 77 70 69 71 73 74 75 76 77 76 74 73 74 72
55 58 60 58 56 57 56 52 51 50 48 49 54 59 60 58 56 61 70 74 75 78 78 77 78 80 80 80 79 74 69 69 72 74 73 73 75 76 74 72 71 70
56 58 62 62 58 58 60 58 54 53 53 51 54 58 60 60 58 58 65 71 73 76 78 77 77 78 78 77 76 75 72 69 70 75 74 71 71 74 74 72 69 67
59 60 63 66 63 61 64 65 60 57 57 55 54 56 59 62 62 59 61 66 70 73 75 75 75 74 75 75 74 73 73 71 71 74 74 72 71 73 74 73 69 67
61 63 64 68 68 65 66 68 66 62 62 61 58 57 60 63 65 64 62 63 66 69 71 72 73 73 73 74 73 71 71 71 71 71 72 73 71 72 73 73 70 68
63 65 66 69 71 70 69 70 70 66 64 65 63 61 62 65 66 67 65 64 65 67 69 69 70 72 73 73 72 71 70 69 69 69 70 71 71 72 74 74 71 69
65 66 67 70 71 72 71 71 72 70 67 66 65 64 64 66 68 68 68 68 67 67 68 68 67 69 72 73 72 71 70 69 68 69 70 70 70 71 73 74 73 71
66 68 68 71 73 73 73 73 73 73 70 67 65 65 66 67 69 70 70 70 68 67 68 68 66 65 68 72 72 71 72 71 70 71 70 69 69 70 71 73 74 74
66 68 69 72 74 74 73 73 73 74 73 69 65 64 65 67 69 69 70 71 71 70 68 66 65 64 65 69 72 72 72 72 73 74 72 69 70 72 73 74 74 74
65 68 70 72 74 74 73 73 73 74 74 72 67 63 63 65 68 68 69 70 71 70 67 64 64 65 64 66 71 73 74 74 76 77 76 73 73 73 74 74 73 73
64 67 69 71 72 73 72 71 72 73 73 73 69 64 61 62 64 67 67 67 66 66 66 66 65 64 65 65 68 72 75 76 78 80 79 78 77 75 74 74 73 73
63 66 68 70 71 73 72 71 71 71 71 72 70 65 62 60 60 63 64 64 64 64 65 66 64 63 65 65 66 70 74 77 80 82 80 80 79 75 74 74 74 74
62 64 67 69 70 71 70 69 69 67 68 70 69 66 64 61 58 58 60 62 63 62 63 64 63 62 63 64 66 69 72 77 82 83 80 79 76 73 72 72 72 73

ECMWFNIL_925_rhum_036.txt.gz
RH
73 73 72 68 63 59 58 61 67 68 67 67 67 67 66 66 66 66 65 66 70 73 72 71 73 77 78 77 77 75 73 74 76 79 80 77 71 66 63 59 56 54
72 72 72 69 65 61 58 58 63 68 70 68 67 67 66 66 64 63 63 64 68 71 72 71 71 75 78 78 77 76 75 75 75 76 78 78 73 67 65 63 58 55
71 71 70 69 65 62 60 58 59 66 71 70 67 65 66 66 64 62 62 63 66 70 73 73 73 75 78 79 78 78 77 77 76 75 74 75 73 67 65 65 61 57
72 70 69 68 65 62 60 58 58 62 68 70 67 64 62 63 64 62 61 61 63 68 72 74 75 75 78 79 79 79 79 78 77 76 74 72 71 68 66 66 63 59
72 70 67 66 63 61 59 57 57 60 63 66 68 65 60 58 62 63 63 62 62 66 71 74 75 75 78 80 78 78 79 79 79 78 76 73 70 67 67 67 65 60
71 68 66 64 61 60 60 58 57 58 60 62 64 66 62 57 59 63 65 65 64 65 70 74 75 74 76 79 78 77 77 77 78 79 78 75 71 68 67 68 67 62
71 69 66 64 62 60 59 60 59 57 59 61 62 63 63 60 57 59 63 67 67 66 68 72 75 73 74 77 78 77 76 74 73 77 79 77 73 69 67 68 68 64
70 69 65 63 63 60 58 59 61 59 59 62 62 60 62 62 59 57 60 66 69 68 68 71 73 72 72 75 77 77 77 74 71 72 78 79 74 71 69 68 70 67
67 68 65 63 63 62 59 58 61 62 60 61 62 61 61 61 60 58 58 63 68 71 70 69 69 70 70 73 76 77 77 75 71 71 75 78 76 73 70 69 70 69
65 67 67 64 63 63 61 58 60 63 61 60 61 61 61 60 60 60 60 61 66 71 72 69 67 68 69 71 74 77 77 74 71 70 72 75 76 74 72 70 70 71
63 64 66 65 62 61 59 58 59 60 60 61 61 60 60 59 59 61 62 64 65 68 72 72 69 68 69 70 73 75 76 73 70 70 71 72 75 76 73 71 71 71
62 59 60 63 61 57 56 57 56 56 59 63 63 59 57 57 59 61 63 66 66 66 70 72 70 69 69 70 72 73 73 73 71 70 70 71 74 76 75 72 71 72
60 56 54 58 59 55 53 54 54 52 55 61 62 60 58 56 58 61 63 65 67 66 68 71 71 70 69 70 71 71 72 73 72 71 70 71 72 74 74 72 71 72
57 55 52 53 55 53 51 51 51 50 52 55 59 61 60 56 57 61 62 64 66 68 68 69 71 71 70 71 72 71 71 72 73 72 70 70 71 72 72 72 72 73
55 55 52 51 52 53 51 50 49 49 49 50 54 60 61 58 56 58 62 65 65 68 70 70 71 71 70 71 72 72 71 71 72 72 71 71 71 71 72 72 73 74
54 55 53 52 52 52 52 51 49 50 48 47 51 57 59 59 56 53 58 64 66 67 71 72 71 71 70 70 71 71 70 69 70 70 70 70 71 71 73 75 74 74
54 56 55 54 53 53 53 52 50 49 48 48 50 54 56 57 57 54 53 59 65 69 72 73 71 70 70 70 70 69 68 66 67 69 69 68 70 72 73 74 74 73
55 57 57 56 55 54 54 54 52 50 50 51 51 52 54 56 57 58 54 55 62 69 72 74 73 71 70 72 72 70 68 65 63 66 69 69 69 71 71 72 74 73
57 58 59 59 58 56 56 56 55 53 52 53 52 51 53 55 57 59 57 55 58 65 70 73 74 73 72 73 74 73 70 67 63 63 65 67 68 69 69 70 71 72
57 58 60 61 62 60 58 58 58 56 54 53 54 53 53 56 58 59 59 58 56 60 66 70 71 72 73 72 73 73 72 69 65 63 62 64 65 67 68 68 68 69
58 60 61 61 64 64 62 61 61 60 59 56 56 55 55 56 58 60 61 61 58 59 63 67 68 69 71 72 72 73 74 72 68 65 64 63 64 66 68 67 66 66
59 61 62 62 64 66 66 65 64 63 63 61 58 57 56 57 58 60 61 62 62 61 61 63 65 65 67 70 72 73 74 74 71 68 66 65 66 67 68 68 67 66
59 61 63 64 66 70 69 66 65 66 66 65 61 59 59 59 59 59 60 62 64 64 63 62 62 63 64 66 69 72 74 75 75 73 70 68 67 67 68 68 68 67
58 61 65 67 69 72 72 68 67 68 68 66 65 62 60 59 60 59 59 61 63 64 65 64 62 62 63 64 66 70 73 75 75 76 75 72 69 68 68 69 69 68
57 61 65 69 70 72 74 72 70 69 70 69 67 64 61 59 60 60 60 61 63 64 65 66 65 63 63 64 65 67 71 74 77 78 78 76 73 71 70 70 70 70
55 61 66 69 70 72 74 73 70 69 70 71 69 66 63 60 58 60 61 62 63 64 65 66 66 66 65 65 66 66 68 72 77 80 80 78 77 75 73 72 72 72

ECMWFNIL_925_rhum_042.txt.gz
RH
73 74 73 71 71 70 67 66 66 64 63 64 65 66 67 67 66 68 71 74 76 76 74 74 74 75 77 79 81 81 80 79 77 75 73 72 69 65 62 61 59 56
73 73 73 71 71 71 69 66 66 65 64 63 63 63 64 67 66 66 67 70 74 75 74 72 73 75 77 79 82 82 81 80 80 78 75 73 72 68 61 60 62 60
74 73 73 72 71 71 70 68 65 65 64 64 64 63 63 65 65 65 64 66 69 73 73 72 71 73 77 80 82 82 82 81 81 81 78 76 75 72 63 58 62 61
74 74 73 72 71 69 70 70 68 66 65 65 66 64 62 63 64 64 64 65 66 69 72 73 72 72 75 81 84 84 83 81 81 81 82 80 77 76 70 62 62 62
74 74 73 73 72 70 70 70 70 69 66 65 66 66 65 63 63 64 65 67 67 68 71 73 74 72 74 79 83 85 84 82 81 82 82 81 78 78 76 69 64 62
75 75 74 74 73 73 72 71 70 71 69 66 66 68 68 66 65 64 65 67 68 69 71 73 75 75 75 79 82 84 84 83 82 82 81 80 78 78 79 76 70 65
76 76 76 76 76 76 75 73 72 72 71 69 68 67 69 69 68 66 64 66 67 69 71 72 74 75 77 80 81 82 82 83 83 82 81 80 80 79 79 80 77 72
76 77 77 77 77 77 77 75 74 73 73 73 71 68 68 69 69 68 67 67 69 70 71 71 72 74 77 80 81 81 81 83 84 84 83 82 81 81 80 80 81 78
76 77 78 78 79 78 78 76 74 72 73 75 74 71 69 68 68 68 69 70 71 71 71 70 71 72 75 78 80 80 82 83 83 83 83 83 83 82 81 81 81 81
77 78 78 79 80 79 79 77 75 73 73 73 75 74 72 69 68 68 68 70 71 71 71 71 71 72 74 76 77 77 79 81 83 84 83 83 82 82 82 81 81 81
78 78 78 79 80 80 79 78 77 75 73 71 72 74 74 73 71 71 70 70 70 70 71 71 71 72 74 75 75 75 77 78 80 82 83 83 82 81 81 81 80 79
78 78 78 78 79 78 79 78 77 76 74 71 70 70 72 73 74 74 73 72 71 70 71 71 71 72 72 73 75 75 77 78 79 80 81 82 83 82 82 81 80 77
77 77 77 77 77 77 77 77 76 75 74 72 70 67 68 70 72 74 74 73 72 72 72 71 71 73 72 73 74 75 77 79 80 81 81 82 83 83 83 83 81 78
76 77 76 76 76 76 76 76 75 75 73 72 70 68 67 66 68 71 73 73 72 72 72 72 73 73 73 74 75 76 77 79 81 83 83 83 83 82 83 84 83 80
76 77 77 76 76 76 76 76 74 74 73 71 70 69 67 65 65 67 70 72 72 71 71 72 74 74 73 73 75 76 77 79 80 83 84 85 84 84 84 84 84 83
75 76 77 77 77 77 77 76 75 74 72 71 70 68 67 65 64 65 66 69 71 72 72 72 73 74 72 72 72 74 76 78 80 82 84 85 86 86 85 84 84 84
74 75 76 77 77 77 77 76 76 74 72 71 69 68 67 66 65 64 65 65 68 70 71 71 72 72 72 71 71 72 73 76 79 81 83 85 86 86 85 84 83 83
73 74 75 76 76 77 76 76 75 74 72 71 69 68 67 66 65 64 64 64 66 68 69 70 70 69 69 70 71 72 73 74 77 79 81 83 85 85 85 84 83 83
72 73 74 75 75 75 75 75 75 74 72 70 68 66 66 66 66 65 64 64 65 67 68 69 69 68 68 68 69 70 72 75 76 78 80 81 82 83 84 84 83 82
71 72 73 73 73 73 74 74 74 73 71 69 68 66 64 65 65 65 65 64 64 65 67 67 68 68 68 68 68 68 70 74 76 77 78 79 80 81 82 82 82 82
71 71 72 72 72 72 72 72 72 72 70 68 67 65 64 63 64 65 65 64 64 63 64 65 65 66 67 67 67 67 69 73 76 78 79 78 78 79 80 80 80 81
69 70 71 71 70 70 71 71 71 71 70 68 67 65 64 63 63 64 64 65 65 64 64 64 63 63 65 67 67 68 70 73 76 79 80 80 79 79 79 79 79 79
67 68 69 69 69 69 70 70 70 70 69 68 67 65 64 63 63 63 64 65 66 66 65 64 63 63 65 66 68 69 71 74 77 79 81 82 81 80 79 78 78 78
64 66 67 68 68 69 68 68 67 67 68 67 67 65 64 63 62 62 63 64 66 67 67 67 66 65 66 67 69 70 71 73 75 78 81 82 81 81 80 79 78 77
61 64 65 66 67 67 67 67 66 65 65 65 66 65 63 62 61 61 61 62 63 65 66 68 68 68 67 67 67 68 69 71 74 78 81 82 82 81 80 79 79 78
59 62 64 65 66 65 65 66 65 65 65 65 66 65 64 62 61 61 61 60 60 62 63 65 68 69 69 68 67 66 67 68 72 77 80 81 81 81 82 81 80 79

ECMWFNIL_925_rhum_045.txt.gz
RH
76 76 76 76 76 75 74 73 72 70 69 69 69 68 67 67 65 65 65 66 68 70 69 65 65 71 76 78 81 82 83 82 78 76 77 77 76 76 76 72 64 59
76 76 76 76 77 77 75 74 71 70 69 67 67 67 67 68 68 66 65 66 67 68 70 68 64 68 73 76 79 82 82 82 81 80 79 79 78 77 76 74 68 63
77 77 77 77 77 77 76 75 73 70 69 68 67 67 67 68 68 67 66 66 67 67 69 70 68 68 71 73 76 79 81 80 80 82 82 80 78 77 75 74 72 67
78 77 77 77 76 76 76 76 75 72 71 69 66 65 66 66 68 68 68 67 66 67 68 70 71 71 71 72 74 76 78 79 80 82 83 82 80 79 76 74 74 72
78 78 77 77 76 76 76 76 75 73 72 70 66 65 64 65 67 68 68 68 66 66 68 69 69 71 73 73 73 73 74 77 80 83 85 83 82 82 80 77 76 75
78 78 77 77 77 77 77 76 75 74 72 70 69 67 65 64 65 65 66 65 64 65 67 68 68 69 71 73 75 74 73 73 78 84 87 85 84 83 83 82 80 79
78 78 78 78 77 77 77 75 75 74 72 72 71 70 68 66 64 64 64 63 63 65 66 67 67 67 68 73 77 77 76 75 77 83 87 87 86 85 84 84 83 81
77 77 78 78 78 78 77 76 75 74 74 74 74 72 70 68 65 63 64 65 64 65 65 66 66 65 67 72 78 80 79 79 79 82 86 88 88 87 85 85 84 82
76 76 77 78 78 78 77 77 76 75 76 76 75 74 72 70 67 64 64 67 67 66 66 66 66 66 67 71 76 79 80 80 81 82 85 88 89 87 86 86 85 83
75 76 77 77 78 78 77 77 77 76 76 76 75 75 74 72 70 68 67 69 70 68 68 68 67 66 68 71 73 75 77 79 81 83 84 86 87 86 86 87 86 85
75 76 77 77 78 78 78 77 78 78 77 76 76 76 75 75 74 73 72 72 72 70 69 69 68 68 69 71 72 73 75 76 79 82 85 85 85 85 86 87 87 86
76 76 77 77 78 78 78 78 78 78 78 77 77 76 76 77 77 76 75 74 72 71 70 70 70 71 71 71 73 75 76 77 78 81 84 84 85 85 86 87 87 86
76 76 76 77 77 77 78 78 78 78 78 77 77 76 77 78 78 78 77 75 74 72 72 71 72 73 73 74 76 77 78 79 80 81 83 84 84 84 85 86 86 86
76 76 76 76 77 77 78 78 79 79 78 78 77 76 76 76 77 77 78 77 76 75 74 74 75 75 74 75 77 78 80 80 80 82 83 85 85 85 85 86 85 85
75 76 77 77 77 78 78 79 79 79 79 79 78 77 75 74 74 75 78 79 78 77 76 76 77 76 74 74 75 77 79 80 80 82 83 84 86 87 87 87 85 84
75 76 77 78 78 78 79 79 80 80 80 80 79 78 76 75 74 74 75 77 78 79 79 79 79 77 74 73 73 74 76 79 81 81 82 84 86 87 88 88 87 85
76 77 78 79 79 79 79 79 80 80 80 80 80 79 78 76 75 74 73 73 75 77 78 79 79 77 76 74 73 74 75 78 80 81 82 84 85 86 87 87 87 86
76 77 78 79 79 80 80 80 80 80 80 81 81 80 79 78 76 75 73 71 72 73 74 77 77 76 76 75 75 75 76 77 79 80 82 84 85 86 86 86 87 87
76 78 78 79 79 80 80 80 81 81 81 80 80 80 79 78 77 76 74 72 72 71 71 73 73 74 74 75 75 75 76 78 78 80 82 83 84 84 85 86 86 87
76 78 78 79 80 80 81 81 81 82 81 80 80 79 79 78 77 76 75 74 73 71 71 71 71 71 72 73 74 73 74 77 78 79 80 81 82 82 83 84 85 86
76 77 78 79 80 80 81 82 82 82 82 81 80 79 78 78 77 76 75 74 73 72 72 71 69 69 69 70 71 72 73 76 78 79 80 79 80 80 81 82 83 84
75 77 78 79 79 81 82 82 82 82 82 81 81 80 79 77 76 76 74 73 73 72 72 71 70 68 68 68 69 70 72 75 76 78 80 80 79 79 80 80 81 82
74 76 77 78 79 80 82 82 81 81 81 81 81 80 79 78 76 75 73 72 72 72 72 72 70 69 68 67 68 69 71 74 75 77 79 80 79 78 79 79 79 80
73 74 75 77 78 79 80 80 80 80 79 80 80 79 78 77 75 74 73 71 71 70 70 71 70 68 68 67 67 68 70 72 74 75 78 79 79 79 79 78 78 78
72 73 74 75 77 77 78 78 78 78 78 78 79 78 77 75 74 73 72 70 69 69 68 69 69 67 67 67 67 67 67 69 71 74 78 79 80 81 80 79 79 79
70 72 73 74 75 75 76 76 76 76 77 77 78 78 76 75 73 72 71 69 68 68 67 67 68 67 67 67 66 66 66 66 69 73 76 78 80 81 81 81 80 80

ECMWFNIL_925_rhum_048.txt.gz
RH
78 78 77 77 77 76 76 75 74 74 73 73 73 72 71 69 67 64 64 64 65 66 66 68 70 70 68 65 66 70 74 78 82 84 84 81 77 76 74 72 71 71
80 79 77 77 78 77 76 75 74 74 73 72 71 72 71 70 68 66 64 64 64 65 65 67 69 71 71 68 65 68 73 78 82 84 86 83 78 77 75 74 74 74
81 79 78 78 77 77 76 75 75 74 73 73 71 71 71 70 70 67 66 65 64 64 64 66 68 70 72 71 68 67 71 77 81 83 86 84 81 79 78 77 77 77
81 79 78 77 76 76 77 77 77 75 74 73 71 70 70 70 70 69 68 66 64 64 63 64 67 69 71 72 72 70 69 73 77 81 86 85 83 83 82 81 80 79
81 80 78 78 77 77 78 78 78 76 75 74 72 71 70 69 69 69 69 69 66 64 64 64 65 67 70 72 74 72 70 72 74 79 85 86 84 84 84 84 82 80
81 81 79 79 78 78 79 78 77 77 76 75 73 72 70 68 67 67 67 68 68 67 65 65 65 66 68 71 74 74 72 72 73 77 82 82 81 82 83 85 85 83
82 81 80 80 79 79 79 77 77 77 76 76 75 73 72 70 67 65 64 66 68 69 68 66 66 66 67 70 74 75 74 73 74 76 79 79 78 79 79 82 85 85
81 81 80 80 80 80 79 79 78 78 77 77 77 75 73 71 68 66 64 64 67 70 69 68 67 67 67 70 73 74 74 74 74 75 77 78 78 76 74 77 82 85
80 81 81 81 81 81 80 80 79 78 78 78 77 76 75 73 71 68 66 65 66 68 69 68 68 68 69 71 72 73 73 73 72 74 76 78 77 73 71 72 78 82
81 81 81 81 81 81 80 80 79 79 79 79 77 77 76 74 72 72 71 69 68 67 68 68 68 69 71 72 72 73 72 72 72 74 74 76 75 73 72 73 76 78
80 81 81 82 81 81 80 79 79 80 80 79 78 77 76 75 75 75 74 73 71 68 67 67 67 69 71 71 71 71 71 71 72 73 73 73 74 73 74 75 77 76
80 80 81 81 81 80 80 79 79 80 80 79 79 78 77 77 77 76 76 75 73 71 69 67 66 68 71 71 71 71 71 71 72 73 74 74 74 74 75 77 78 77
79 79 79 80 80 79 79 80 80 80 80 79 79 78 78 78 78 78 77 75 74 72 71 70 68 69 71 72 72 72 72 73 73 74 76 76 76 76 76 77 78 79
77 78 78 78 78 79 79 79 79 79 79 79 79 79 78 78 78 78 78 77 76 74 73 73 73 73 73 74 74 74 74 74 74 76 77 78 79 78 78 79 79 80
76 77 78 78 78 79 79 79 79 79 79 79 79 79 78 78 78 78 79 79 78 77 76 76 78 77 76 76 75 74 74 74 76 77 78 79 80 80 80 80 81 81
76 76 77 78 78 78 79 79 79 79 79 79 79 79 79 79 79 79 80 80 80 80 80 80 81 79 77 76 74 73 73 75 77 78 79 80 81 81 81 81 82 83
75 77 77 78 78 79 79 80 80 80 80 80 80 80 80 80 80 80 80 80 81 82 82 83 82 79 77 77 75 75 75 77 78 78 79 80 81 81 81 81 83 84
75 77 78 78 79 79 79 80 80 81 81 81 81 81 81 81 80 80 80 79 80 82 82 83 82 79 77 77 77 77 77 78 79 79 80 80 80 80 81 82 84 85
74 76 78 79 79 79 80 80 82 82 82 82 82 81 82 82 82 81 80 80 80 80 80 81 81 80 79 79 78 78 78 79 79 80 80 80 80 80 80 82 84 84
74 76 77 78 79 79 81 82 82 83 82 82 83 83 83 84 83 82 81 80 80 79 78 78 77 77 77 78 78 78 79 80 80 81 81 81 80 80 81 82 83 84
75 76 77 78 79 80 82 82 83 83 83 83 83 83 84 84 83 83 82 81 81 79 79 78 76 75 74 75 75 76 78 80 81 82 82 82 81 81 81 82 83 85
75 76 77 78 79 81 82 83 84 84 83 83 84 83 84 83 83 84 83 82 81 81 80 79 77 75 74 73 73 73 75 78 80 82 82 82 81 80 81 81 82 84
75 76 78 79 80 82 83 83 84 84 83 84 84 84 84 84 83 83 82 81 82 82 81 80 78 76 76 74 73 73 74 76 78 80 81 81 80 78 78 79 80 81
75 76 77 79 81 82 83 83 83 83 83 83 84 84 84 83 82 82 82 81 81 81 81 80 79 77 76 76 74 74 74 75 76 77 78 79 78 77 77 77 77 77
74 76 77 78 80 81 81 82 82 82 82 83 84 84 83 83 83 82 82 82 81 80 80 80 79 77 76 75 75 74 74 74 74 76 77 78 78 77 76 76 76 76
73 76 77 78 79 79 80 80 81 82 83 84 85 85 84 84 84 83 83 82 81 81 80 80 79 78 76 75 74 74 74 74 74 76 77 77 77 78 77 76 76 77